DW3248 Weather Reports


time (UTC)temp
C
wind
direction
speed
KPH
gust
KPH
rain 1hr
cm
rain 24hr
cm
rain mn
cm
humidity
%
barometer
mb
20260503021624 12 174 4.8 8.0 0.00 0.71 0.71 97 1011.6
20260503021125 12 155 3.2 6.4 0.00 0.71 0.71 97 1011.5
20260503020624 12 162 3.2 6.4 0.00 0.71 0.71 97 1011.5
20260503020126 12 166 4.8 9.7 0.00 0.71 0.71 97 1011.6
20260503015624 12 142 4.8 8.0 0.00 0.71 0.71 97 1011.5
20260503015127 12 115 3.2 6.4 0.00 0.71 0.71 97 1011.4
20260503014128 12 122 3.2 6.4 0.00 0.71 0.71 97 1011.4
20260503013624 12 123 4.8 9.7 0.00 0.71 0.71 97 1011.4
20260503013127 12 122 3.2 6.4 0.00 0.71 0.71 97 1011.5
20260503012624 12 163 3.2 6.4 0.00 0.71 0.71 96 1011.5
20260503012129 13 99 6.4 9.7 0.00 0.71 0.71 96 1011.5
20260503011624 13 102 4.8 8.0 0.00 0.71 0.71 97 1011.5
20260503011126 13 120 3.2 8.0 0.00 0.71 0.71 97 1011.6
20260503010624 13 104 4.8 9.7 0.00 0.71 0.71 97 1011.5
20260503010126 13 115 4.8 9.7 0.00 0.71 0.71 97 1011.6
20260503005127 13 112 4.8 11.3 0.00 0.71 0.71 96 1011.7
20260503004624 13 111 4.8 9.7 0.00 0.71 0.71 97 1011.8
20260503004127 13 99 4.8 8.0 0.00 0.71 0.71 96 1011.8
20260503003625 12 122 4.8 11.3 0.00 0.71 0.71 96 1011.8
20260503003129 12 116 4.8 11.3 0.00 0.71 0.71 96 1011.8
20260503002624 12 108 4.8 9.7 0.00 0.71 0.71 96 1011.7
20260503002126 12 109 3.2 6.4 0.00 0.71 0.71 96 1011.9
20260503001624 12 100 4.8 9.7 0.00 0.71 0.71 96 1012.0
20260503001126 12 120 4.8 6.4 0.00 0.71 0.71 96 1012.1
20260503000624 12 124 4.8 9.7 0.00 0.71 0.71 96 1012.2
20260502235624 12 100 6.4 12.9 0.03 0.71 0.71 95 1012.2
20260502235126 12 132 4.8 11.3 0.08 0.71 0.71 95 1012.2
20260502234126 13 98 4.8 11.3 0.20 0.71 0.71 95 1012.2
20260502233624 13 97 4.8 9.7 0.23 0.71 0.71 95 1012.2
20260502233127 13 86 6.4 12.9 0.28 0.71 0.71 95 1012.3
20260502232624 13 78 6.4 12.9 0.33 0.71 0.71 95 1012.2
20260502232127 13 82 6.4 12.9 0.43 0.71 0.71 95 1012.2
20260502231624 13 96 6.4 17.7 0.51 0.71 0.71 95 1012.4
20260502231127 13 85 8.0 14.5 0.56 0.71 0.71 95 1012.3
20260502230624 13 83 8.0 16.1 0.61 0.69 0.71 95 1012.3
20260502230127 13 78 9.7 19.3 0.69 0.66 0.69 95 1012.4
20260502225624 13 64 9.7 14.5 0.69 0.64 0.69 95 1012.5
20260502225128 13 104 9.7 17.7 0.64 0.56 0.64 95 1012.9
20260502224625 12 78 11.3 20.9 0.58 0.51 0.58 95 1012.8
20260502224126 12 78 11.3 19.3 0.51 0.46 0.51 94 1012.9
20260502223624 12 79 11.3 17.7 0.46 0.43 0.46 94 1013.2
20260502223125 12 70 9.7 16.1 0.43 0.36 0.43 93 1013.4
20260502222624 13 60 8.0 14.5 0.38 0.28 0.38 92 1013.7
20260502222128 13 86 6.4 9.7 0.30 0.20 0.30 91 1014.1
20260502221624 13 82 4.8 8.0 0.23 0.15 0.23 89 1014.3
20260502221127 13 139 3.2 6.4 0.18 0.08 0.18 87 1014.6
20260502220624 14 167 4.8 9.7 0.10 0.00 0.10 83 1014.8
20260502220126 15 205 6.4 11.3 0.00 0.00 0.00 78 1014.9
20260502215624 15 212 8.0 16.1 0.00 0.00 0.00 80 1014.8
20260502215126 15 213 12.9 25.7 0.00 0.00 0.00 83 1015.2
20260502214624 14 229 11.3 24.1 0.00 0.00 0.00 87 1014.9
20260502214127 14 192 9.7 22.5 0.00 0.00 0.00 90 1015.0
20260502213624 14 85 6.4 12.9 0.00 0.00 0.00 89 1013.9
20260502213127 14 128 8.0 17.7 0.00 0.00 0.00 89 1013.9
20260502212624 14 6 8.0 17.7 0.00 0.00 0.00 89 1013.1
20260502212127 14 358 6.4 16.1 0.00 0.00 0.00 89 1013.1
20260502211624 14 17 8.0 24.1 0.00 0.00 0.00 88 1013.2
20260502211127 15 31 9.7 17.7 0.00 0.00 0.00 87 1013.3
20260502210624 15 42 8.0 19.3 0.00 0.00 0.00 86 1013.3
20260502210126 15 36 4.8 17.7 0.00 0.00 0.00 84 1013.4
20260502205624 15 359 4.8 11.3 0.00 0.00 0.00 83 1013.3
20260502205127 15 2 8.0 12.9 0.00 0.00 0.00 82 1013.4
20260502204624 15 10 6.4 12.9 0.00 0.00 0.00 78 1013.5
20260502204126 15 352 4.8 14.5 0.00 0.00 0.00 75 1013.6
20260502203624 15 5 4.8 17.7 0.00 0.00 0.00 73 1013.7
20260502202624 15 29 3.2 8.0 0.00 0.00 0.00 69 1013.8
20260502202128 15 16 4.8 8.0 0.00 0.00 0.00 68 1013.9
20260502201624 15 25 4.8 8.0 0.00 0.00 0.00 68 1013.9
20260502200624 15 5 4.8 8.0 0.00 0.00 0.00 67 1014.1
20260502200126 15 359 4.8 9.7 0.00 0.00 0.00 68 1014.1
20260502195624 15 23 3.2 8.0 0.00 0.00 0.00 68 1014.2
20260502195128 15 0 4.8 8.0 0.00 0.00 0.00 67 1014.1
20260502194623 15 356 4.8 9.7 0.00 0.00 0.00 66 1014.2
20260502194126 15 23 4.8 11.3 0.00 0.00 0.00 66 1014.2
20260502193624 15 2 6.4 11.3 0.00 0.00 0.00 67 1014.3
20260502192623 16 41 3.2 8.0 0.00 0.00 0.00 67 1014.3
20260502192125 16 20 3.2 6.4 0.00 0.00 0.00 67 1014.2
20260502191623 16 347 6.4 11.3 0.00 0.00 0.00 67 1014.1
20260502190623 16 21 4.8 9.7 0.00 0.00 0.00 65 1014.2
20260502185124 17 340 4.8 12.9 0.00 0.00 0.00 62 1014.2
20260502184624 17 25 4.8 8.0 0.00 0.00 0.00 61 1014.2
20260502184124 17 358 4.8 6.4 0.00 0.00 0.00 60 1014.2
20260502182623 18 351 6.4 11.3 0.00 0.00 0.00 53 1014.1
20260502182126 18 346 4.8 11.3 0.00 0.00 0.00 54 1014.0
20260502181125 19 317 3.2 6.4 0.00 0.00 0.00 54 1014.0
20260502180126 19 317 3.2 6.4 0.00 0.00 0.00 54 1014.0
20260502170126 20 301 4.8 8.0 0.00 0.00 0.00 54 1014.7
20260502164126 20 272 6.4 9.7 0.00 0.00 0.00 54 1015.1
20260502163623 21 275 6.4 11.3 0.00 0.00 0.00 55 1015.1
20260502163127 20 247 6.4 11.3 0.00 0.00 0.00 55 1015.2
20260502162623 21 246 8.0 12.9 0.00 0.00 0.00 54 1015.3
20260502162128 21 257 4.8 9.7 0.00 0.00 0.00 55 1015.3
20260502161623 21 292 8.0 16.1 0.00 0.00 0.00 55 1015.3
20260502160623 21 265 8.0 12.9 0.00 0.00 0.00 55 1015.3
20260502160124 21 266 6.4 14.5 0.00 0.00 0.00 56 1015.4
20260502151624 21 236 4.8 9.7 0.00 0.00 0.00 59 1015.6
20260502151127 21 231 6.4 16.1 0.00 0.00 0.00 60 1015.7
20260502150624 21 249 6.4 11.3 0.00 0.00 0.00 60 1015.7
20260502150124 21 250 8.0 17.7 0.00 0.00 0.00 60 1015.8
20260502140125 22 240 8.0 17.7 0.00 0.00 0.00 63 1016.5
20260502130623 21 217 8.0 16.1 0.00 0.00 0.00 66 1016.8
20260502130126 21 228 9.7 20.9 0.00 0.00 0.00 65 1016.9
20260502123128 21 230 9.7 17.7 0.00 0.00 0.00 70 1017.2
20260502122623 21 215 9.7 19.3 0.00 0.00 0.00 70 1017.2
20260502122126 21 220 9.7 17.7 0.00 0.00 0.00 72 1017.3
20260502121623 20 213 8.0 17.7 0.00 0.00 0.00 72 1017.3
20260502121125 20 212 12.9 24.1 0.00 0.00 0.00 71 1017.4
20260502120624 21 196 11.3 22.5 0.00 0.00 0.00 71 1017.3
20260502120126 21 215 11.3 20.9 0.00 0.00 0.00 71 1017.4
20260502115623 21 204 11.3 19.3 0.00 0.00 0.00 72 1017.4
20260502114623 20 236 9.7 24.1 0.00 0.00 0.00 74 1017.5
20260502114126 20 231 11.3 19.3 0.00 0.00 0.00 74 1017.5
20260502113623 20 222 11.3 17.7 0.00 0.00 0.00 73 1017.5
20260502112623 20 247 8.0 17.7 0.00 0.00 0.00 75 1017.6
20260502112128 20 211 11.3 22.5 0.00 0.00 0.00 71 1017.7
20260502111124 20 244 11.3 22.5 0.00 0.00 0.00 71 1017.6
20260502110623 20 214 9.7 19.3 0.00 0.00 0.00 71 1017.6
20260502110126 20 246 8.0 16.1 0.00 0.00 0.00 72 1017.6
20260502105623 20 237 9.7 19.3 0.00 0.00 0.00 74 1017.7
20260502105126 20 246 9.7 19.3 0.00 0.00 0.00 72 1017.7
20260502104623 21 228 11.3 19.3 0.00 0.00 0.00 69 1017.7
20260502104126 21 208 11.3 24.1 0.00 0.00 0.00 68 1017.7
20260502103623 21 219 12.9 24.1 0.00 0.00 0.00 70 1017.8
20260502103127 20 239 9.7 24.1 0.00 0.00 0.00 70 1017.8
20260502102623 21 243 9.7 20.9 0.00 0.00 0.00 70 1017.8
20260502102124 20 226 11.3 19.3 0.00 0.00 0.00 71 1017.8
20260502101623 20 217 8.0 19.3 0.00 0.00 0.00 71 1017.8
20260502100623 20 217 8.0 19.3 0.00 0.00 0.00 71 1017.9
20260502100127 20 213 9.7 19.3 0.00 0.00 0.00 70 1017.9
20260502091128 18 234 4.8 11.3 0.00 0.00 0.00 79 1018.2
20260502090127 17 202 8.0 17.7 0.00 0.00 0.00 80 1018.2
20260502071126 15 203 6.4 9.7 0.00 0.00 0.00 74 1018.1
20260502070623 14 210 4.8 9.7 0.00 0.00 0.00 76 1018.2
20260502070126 14 218 4.8 8.0 0.00 0.00 0.00 75 1018.2
20260502065623 13 211 1.6 4.8 0.00 0.00 0.00 75 1018.2
20260502065130 13 200 4.8 8.0 0.00 0.00 0.00 75 1018.3
20260502064623 13 197 4.8 6.4 0.00 0.00 0.00 74 1018.3
20260502064126 13 181 4.8 8.0 0.00 0.00 0.00 73 1018.3
20260502063126 12 162 1.6 4.8 0.00 0.00 0.00 73 1018.2
20260502062623 12 153 1.6 3.2 0.00 0.00 0.00 73 1018.1
20260502062126 12 169 1.6 6.4 0.00 0.00 0.00 73 1018.1
20260502061623 12 177 3.2 6.4 0.00 0.00 0.00 72 1018.2
20260502061127 12 178 3.2 6.4 0.00 0.00 0.00 72 1018.2
20260502060623 12 117 1.6 4.8 0.00 0.00 0.00 71 1018.0
20260502060126 12 150 1.6 4.8 0.00 0.00 0.00 71 1018.1
20260502055623 12 178 3.2 9.7 0.00 0.00 0.00 72 1018.1
20260502055127 12 194 6.4 14.5 0.00 0.00 0.00 72 1018.3
20260502054623 12 203 6.4 9.7 0.00 0.00 0.00 72 1018.3
20260502054126 12 195 6.4 14.5 0.00 0.00 0.00 72 1018.2
20260502053623 12 195 6.4 11.3 0.00 0.00 0.00 71 1018.1
20260502053125 12 191 6.4 14.5 0.00 0.00 0.00 70 1018.1
20260502052127 11 173 3.2 6.4 0.00 0.00 0.00 75 1017.8
20260502051623 11 169 0.0 3.2 0.00 0.00 0.00 76 1017.8
20260502051126 11 168 0.0 3.2 0.00 0.00 0.00 75 1017.8
20260502050125 11 174 3.2 8.0 0.00 0.00 0.00 75 1017.9
20260502045623 10 183 3.2 6.4 0.00 0.00 0.00 76 1017.9
20260502045126 10 181 3.2 6.4 0.00 0.00 0.00 76 1018.0
20260502044623 10 176 3.2 6.4 0.00 0.00 0.00 75 1018.0
20260502044129 10 178 4.8 6.4 0.00 0.00 0.00 77 1017.9
20260502043623 10 179 4.8 8.0 0.00 0.00 0.00 76 1018.0
20260502043126 10 179 4.8 6.4 0.00 0.00 0.00 78 1017.9
20260502042623 9 178 3.2 6.4 0.00 0.00 0.00 80 1017.9
20260502042126 9 174 3.2 4.8 0.00 0.00 0.00 81 1018.0
20260502041126 8 172 1.6 4.8 0.00 0.00 0.00 82 1018.0
20260502040623 8 167 3.2 6.4 0.00 0.00 0.00 83 1017.9
20260502040126 8 141 3.2 4.8 0.00 0.00 0.00 83 1018.0
20260502035623 8 151 1.6 3.2 0.00 0.00 0.00 84 1018.0
20260502035126 8 190 1.6 4.8 0.00 0.00 0.00 84 1018.0
20260502034623 8 150 1.6 4.8 0.00 0.00 0.00 86 1017.9
20260502034126 8 176 1.6 3.2 0.00 0.00 0.00 86 1018.1
20260502033623 8 283 0.0 1.6 0.00 0.00 0.00 86 1018.1
20260502033126 8 103 1.6 3.2 0.00 0.00 0.00 87 1018.0
20260502032623 8 172 0.0 3.2 0.00 0.00 0.00 87 1018.2
20260502032126 8 134 0.0 3.2 0.00 0.00 0.00 87 1018.1
20260502031125 8 111 0.0 1.6 0.00 0.00 0.00 86 1018.3
20260502030623 8 90 0.0 1.6 0.00 0.00 0.00 86 1018.3
20260502030127 8 109 0.0 1.6 0.00 0.00 0.00 86 1018.4
20260502025623 8 124 0.0 1.6 0.00 0.00 0.00 86 1018.4
20260502024623 8 58 0.0 1.6 0.00 0.00 0.00 86 1018.5
20260502024126 8 91 1.6 3.2 0.00 0.00 0.00 85 1018.5
20260502022623 8 96 0.0 3.2 0.00 0.00 0.00 84 1018.6
20260502022126 8 124 1.6 3.2 0.00 0.00 0.00 84 1018.6